Flag for Norway Weather past 2 weeks in Bodø, Norway

Now
59 °F

Passing clouds.


Feels Like: 58 °F
Forecast: 52 / 58 °F
Wind: 8 mph from West

Location: Bodo Vi

Current Time: Jul 28, 2015 at 3:28:48 PM

Latest Report: Jul 28, 2015 at 2:50 PM


Visibility: N/A

Pressure: 29.59 "Hg

Humidity: 77%

Dew point: 52 °F

Location of BodøLocation

Historic Weather in Bodø — Graph

°F

Bodø temperature yesterday

Maximum temperature yesterday: 63 °F (at 12:50 PM)
Minimum temperature yesterday: 52 °F (at 9:20 PM)
Average temperature yesterday: 56 °F

Past Weeks' High & Low Weather Summary

 TemperatureHumidityPressure
High66 °F (Jul 22, 11:50 AM)100% (Jul 15, 4:50 AM)29.92 "Hg (Jul 15, 4:50 AM)
Low48 °F (Jul 16, 8:50 AM)49% (Jul 22, 6:20 PM)29.30 "Hg (Jul 27, 10:50 AM)
Average54 °F85%29.70 "Hg
* Reported Jul 13 2:20 PM — Jul 28 2:20 PM, Bodø, Weather by CustomWeather, © 2015

Note: Actual official high and low records may vary slightly from our data, if they occured in-between our weather recording intervals... More about our weather records

Advertising

Bodø weather history for previous 24 hours

 ConditionsComfort  
Time TempWeatherWind HumidityBarometerVisibility
2:20 PM
Tue, Jul 28
59 °FScattered clouds.9 mph77%29.59 "HgN/A
1:50 PM61 °FPartly sunny.13 mph59%29.59 "HgN/A
1:20 PM61 °FPartly sunny.14 mph59%29.56 "HgN/A
12:50 PM61 °FPartly sunny.14 mph59%29.56 "HgN/A
12:20 PM59 °FScattered clouds.15 mph63%29.56 "HgN/A
11:50 AM61 °FScattered clouds.17 mph63%29.56 "HgN/A
11:20 AM61 °FPartly sunny.10 mph63%29.56 "HgN/A
10:50 AM59 °FScattered clouds.8 mph72%29.56 "HgN/A
10:20 AM57 °FPartly sunny.7 mph72%29.53 "HgN/A
9:50 AM57 °FPartly sunny.3 mph72%29.53 "HgN/A
9:20 AM55 °FPartly sunny.3 mph82%29.50 "HgN/A
8:50 AM55 °FPartly sunny.7 mph77%29.50 "HgN/A
8:20 AM55 °FPartly sunny.10 mph72%29.50 "HgN/A
7:50 AM55 °FPartly sunny.7 mph72%29.50 "HgN/A
7:20 AM55 °FPartly sunny.8 mph77%29.47 "HgN/A
6:50 AM55 °FPartly sunny.10 mph77%29.47 "HgN/A
6:20 AM55 °FPartly sunny.10 mph77%29.45 "HgN/A
5:50 AM54 °FBroken clouds.9 mph77%29.45 "HgN/A
5:20 AM54 °FScattered showers. Scattered clouds.13 mph77%29.45 "HgN/A
4:50 AM54 °FSprinkles. Broken clouds.12 mph82%29.45 "HgN/A
3:50 AM52 °FPassing clouds.13 mph94%29.42 "HgN/A
2:50 AM52 °FPassing clouds.12 mph94%29.42 "HgN/A
1:50 AM50 °FPassing clouds.13 mph100%29.45 "HgN/A
12:50 AM50 °FPassing clouds.7 mph100%29.42 "HgN/A
12:20 AM52 °FPartly cloudy.6 mph100%29.45 "HgN/A
11:50 PM
Mon, Jul 27
52 °FSleet. Broken clouds.7 mph100%29.42 "HgN/A
11:20 PM52 °FLight rain. Broken clouds.3 mph94%29.45 "Hg6 mi
10:50 PM52 °FLight rain. Broken clouds.5 mph100%29.42 "HgN/A
10:20 PM52 °FDrizzle. Broken clouds.3 mph100%29.42 "Hg6 mi
9:50 PM52 °FDrizzle. Broken clouds.7 mph100%29.42 "Hg4 mi
9:20 PM52 °FDrizzle. Broken clouds.13 mph100%29.42 "Hg6 mi
8:50 PM54 °FDrizzle. Broken clouds.10 mph100%29.42 "Hg4 mi
8:20 PM54 °FDrizzle. Broken clouds.8 mph100%29.42 "Hg5 mi
7:50 PM54 °FDrizzle. Broken clouds.8 mph100%29.39 "HgN/A
7:20 PM54 °FLight rain. Broken clouds.12 mph100%29.39 "HgN/A
6:50 PM54 °FDrizzle. Broken clouds.12 mph100%29.39 "HgN/A
6:20 PM54 °FDrizzle. Broken clouds.10 mph100%29.39 "HgN/A
5:50 PM54 °FSprinkles. Broken clouds.13 mph100%29.36 "HgN/A
5:20 PM54 °FSprinkles. Broken clouds.14 mph100%29.36 "HgN/A
4:50 PM55 °FSprinkles. Broken clouds.16 mph94%29.36 "HgN/A
4:20 PM55 °FSprinkles. Broken clouds.15 mph94%29.33 "HgN/A
3:50 PM59 °FSprinkles. Broken clouds.8 mph82%29.33 "HgN/A
3:20 PM61 °FScattered showers. Broken clouds.13 mph77%29.33 "HgN/A
Weather by CustomWeather, © 2015

See weather overviewHow to use our weather pages